Location: Cartignies
(50.0929°N, 3.8447°E)
Time: 13:48:27
(UTC+00:00)

Meteor 1-16 Rocket - Pass Details

Date: 12 January 2026
Orbit: 789 x 905 km, 81.2° (Epoch: 15 February)

Event Time Altitude Azimuth Distance (km) Brightness Sun altitude
Rises 18:04:36 0° 347° (NNW) 3,300 7.3 -18.2°
Reaches altitude 10° 18:06:59 10° 349° (NNW) 2,365 6.5 -18.5°
Maximum altitude 18:12:18 86° 77° (ENE) 802 4.0 -19.4°
Drops below altitude 10° 18:17:39 10° 168° (SSE) 2,371 6.5 -20.2°
Sets 18:20:02 0° 169° (SSE) 3,309 7.3 -20.6°
